| time (UTC) | temp F | wind direction | speed MPH | gust MPH | rain 1hr in | rain 24hr in | rain mn in | humidity % | barometer mb |
| 20260905163042 | 75 | 355 | 0.0 | 1.0 | 0.00 | 0.00 | 0.00 | 60 | 1011.4 |
| 20260905161538 | 73 | 31 | 0.0 | 4.0 | 0.00 | 0.00 | 0.00 | 60 | 1011.7 |
| 20260905160035 | 72 | 350 | 0.0 | 3.0 | 0.00 | 0.00 | 0.00 | 60 | 1011.7 |
| 20260905154529 | 72 | 185 | 0.0 | 5.0 | 0.00 | 0.00 | 0.00 | 59 | 1011.7 |
| 20260905153024 | 72 | 53 | 0.0 | 3.0 | 0.00 | 0.00 | 0.00 | 57 | 1011.8 |
| 20260905151520 | 72 | 98 | 0.0 | 6.0 | 0.00 | 0.00 | 0.00 | 59 | 1011.9 |
| 20260905150017 | 72 | 348 | 1.0 | 5.0 | 0.00 | 0.00 | 0.00 | 58 | 1012.0 |
| 20260905144512 | 72 | 54 | 0.0 | 3.0 | 0.00 | 0.00 | 0.00 | 51 | 1011.9 |
| 20260905143007 | 70 | 21 | 0.0 | 5.0 | 0.00 | 0.00 | 0.00 | 53 | 1011.8 |
| 20260905141511 | 70 | 19 | 0.0 | 4.0 | 0.00 | 0.00 | 0.00 | 52 | 1011.7 |
| 20260905140059 | 69 | 17 | 0.0 | 5.0 | 0.00 | 0.00 | 0.00 | 48 | 1011.8 |
| 20260905134600 | 69 | 36 | 0.0 | 5.0 | 0.00 | 0.00 | 0.00 | 47 | 1011.9 |
| 20260905133056 | 69 | 351 | 0.0 | 4.0 | 0.00 | 0.00 | 0.00 | 39 | 1012.1 |
| 20260905131547 | 69 | 24 | 0.0 | 6.0 | 0.00 | 0.00 | 0.00 | 22 | 1012.1 |
| 20260905130041 | 68 | 52 | 0.0 | 1.0 | 0.00 | 0.00 | 0.00 | 4 | 1012.1 |
| 20260905124541 | 67 | 40 | 0.0 | 2.0 | 0.00 | 0.00 | 0.00 | 100 | 1012.1 |
| 20260905123032 | 66 | 21 | 0.0 | 0.0 | 0.00 | 0.00 | 0.00 | 100 | 1011.9 |
| 20260905121528 | 65 | 21 | 0.0 | 0.0 | 0.00 | 0.00 | 0.00 | 100 | 1011.9 |
| 20260905120026 | 0 | 0.0 | 0.0 | 0.00 | 0.00 | 0.00 | 1011.9 | ||
| 20260905114519 | 0 | 0.0 | 0.0 | 0.00 | 0.00 | 0.00 | 1011.8 | ||
| 20260905113019 | 0 | 0.0 | 0.0 | 0.00 | 0.00 | 0.00 | 1011.6 | ||
| 20260905111512 | 0 | 0.0 | 0.0 | 0.00 | 0.00 | 0.00 | 1011.3 | ||
| 20260905110006 | 0 | 0.0 | 0.0 | 0.00 | 0.00 | 0.00 | 1011.2 | ||
| 20260905104503 | 0 | 0.0 | 0.0 | 0.00 | 0.00 | 0.00 | 1011.0 | ||
| 20260905103058 | 0 | 0.0 | 0.0 | 0.00 | 0.00 | 0.00 | 1010.9 | ||
| 20260905101604 | 64 | 46 | 0.0 | 0.0 | 0.00 | 0.00 | 0.00 | 100 | 1010.6 |
| 20260905100047 | 64 | 46 | 0.0 | 0.0 | 0.00 | 0.00 | 0.00 | 100 | 1010.6 |
| 20260905094542 | 64 | 46 | 0.0 | 2.0 | 0.00 | 0.00 | 0.00 | 100 | 1010.5 |
| 20260905093038 | 64 | 44 | 0.0 | 0.0 | 0.00 | 0.00 | 0.00 | 100 | 1010.4 |
| 20260905091532 | 64 | 44 | 0.0 | 0.0 | 0.00 | 0.00 | 0.00 | 100 | 1010.5 |
| 20260905090032 | 63 | 44 | 0.0 | 0.0 | 0.00 | 0.00 | 0.00 | 100 | 1010.5 |
| 20260905084525 | 64 | 44 | 0.0 | 3.0 | 0.00 | 0.00 | 0.00 | 100 | 1010.6 |
| 20260905083024 | 64 | 23 | 0.0 | 0.0 | 0.00 | 0.00 | 0.00 | 100 | 1010.5 |
| 20260905081516 | 64 | 23 | 0.0 | 0.0 | 0.00 | 0.00 | 0.00 | 100 | 1010.7 |
| 20260905080012 | 64 | 23 | 0.0 | 1.0 | 0.00 | 0.00 | 0.00 | 100 | 1010.7 |
| 20260905074512 | 64 | 23 | 0.0 | 1.0 | 0.00 | 0.00 | 0.00 | 100 | 1010.8 |
| 20260905073003 | 64 | 23 | 0.0 | 0.0 | 0.00 | 0.00 | 0.00 | 100 | 1010.9 |
| 20260905071558 | 64 | 23 | 0.0 | 0.0 | 0.00 | 0.00 | 0.00 | 2 | 1011.0 |
| 20260905070104 | 64 | 23 | 0.0 | 1.0 | 0.00 | 0.00 | 0.00 | 4 | 1011.1 |
| 20260905064550 | 64 | 23 | 0.0 | 2.0 | 0.00 | 0.00 | 0.00 | 4 | 1011.2 |
| 20260905063055 | 64 | 23 | 0.0 | 1.0 | 0.00 | 0.00 | 0.00 | 4 | 1011.3 |
| 20260905061541 | 64 | 23 | 0.0 | 1.0 | 0.00 | 0.00 | 0.00 | 5 | 1011.3 |
| 20260905060037 | 64 | 23 | 0.0 | 4.0 | 0.00 | 0.00 | 0.00 | 6 | 1011.4 |
| 20260905054536 | 64 | 24 | 0.0 | 4.0 | 0.00 | 0.00 | 0.00 | 2 | 1011.5 |
| 20260905053028 | 63 | 19 | 0.0 | 3.0 | 0.00 | 0.00 | 0.00 | 100 | 1011.6 |
| 20260905051525 | 63 | 17 | 0.0 | 0.0 | 0.00 | 0.00 | 0.00 | 100 | 1011.7 |
| 20260905050022 | 63 | 17 | 0.0 | 0.0 | 0.00 | 0.00 | 0.00 | 2 | 1011.8 |
| 20260905044518 | 63 | 17 | 0.0 | 0.0 | 0.00 | 0.00 | 0.00 | 2 | 1012.0 |
| 20260905043010 | 64 | 17 | 0.0 | 0.0 | 0.00 | 0.00 | 0.00 | 7 | 1012.0 |
| 20260905041509 | 64 | 17 | 0.0 | 0.0 | 0.00 | 0.00 | 0.00 | 12 | 1011.9 |
| 20260905040005 | 64 | 17 | 0.0 | 0.0 | 0.00 | 0.00 | 0.00 | 18 | 1012.0 |
| 20260905034502 | 65 | 17 | 0.0 | 0.0 | 0.00 | 0.00 | 0.00 | 24 | 1011.8 |
| 20260905033057 | 65 | 17 | 0.0 | 1.0 | 0.00 | 0.00 | 0.00 | 26 | 1011.6 |
| 20260905031557 | 65 | 17 | 0.0 | 1.0 | 0.00 | 0.00 | 0.00 | 31 | 1011.5 |
| 20260905030049 | 65 | 17 | 0.0 | 1.0 | 0.00 | 0.00 | 0.00 | 30 | 1011.6 |
| 20260905024543 | 65 | 17 | 0.0 | 0.0 | 0.00 | 0.00 | 0.00 | 26 | 1011.7 |
| 20260905023038 | 65 | 17 | 0.0 | 0.0 | 0.00 | 0.00 | 0.00 | 28 | 1011.7 |
| 20260905021534 | 65 | 17 | 0.0 | 2.0 | 0.00 | 0.00 | 0.00 | 24 | 1011.7 |
| 20260905020033 | 65 | 17 | 0.0 | 0.0 | 0.00 | 0.00 | 0.00 | 26 | 1011.7 |
| 20260905014525 | 66 | 17 | 0.0 | 0.0 | 0.00 | 0.00 | 0.00 | 28 | 1011.6 |
| 20260905013021 | 66 | 17 | 0.0 | 0.0 | 0.00 | 0.00 | 0.00 | 28 | 1011.8 |
| 20260905011516 | 66 | 16 | 0.0 | 0.0 | 0.00 | 0.00 | 0.00 | 27 | 1011.8 |
| 20260905010019 | 66 | 20 | 0.0 | 2.0 | 0.00 | 0.00 | 0.00 | 23 | 1011.8 |
| 20260905004508 | 66 | 23 | 0.0 | 0.0 | 0.00 | 0.00 | 0.00 | 27 | 1011.9 |
| 20260905003006 | 66 | 23 | 0.0 | 0.0 | 0.00 | 0.00 | 0.00 | 33 | 1011.7 |
| 20260905001600 | 67 | 23 | 0.0 | 1.0 | 0.00 | 0.00 | 0.00 | 30 | 1011.5 |
| 20260905000055 | 68 | 23 | 0.0 | 0.0 | 0.00 | 0.00 | 0.00 | 30 | 1011.2 |
| 20260904234550 | 69 | 23 | 0.0 | 0.0 | 0.00 | 0.00 | 0.00 | 39 | 1011.2 |
| 20260904233046 | 69 | 23 | 0.0 | 0.0 | 0.00 | 0.00 | 0.00 | 50 | 1011.1 |
| 20260904231542 | 70 | 23 | 0.0 | 1.0 | 0.00 | 0.00 | 0.00 | 58 | 1011.2 |
| 20260904230059 | 71 | 23 | 0.0 | 0.0 | 0.00 | 0.00 | 0.00 | 63 | 1011.2 |
| 20260904224533 | 72 | 23 | 0.0 | 0.0 | 0.00 | 0.00 | 0.00 | 64 | 1011.2 |
| 20260904223029 | 73 | 23 | 0.0 | 3.0 | 0.00 | 0.00 | 0.00 | 62 | 1011.0 |
| 20260904221524 | 74 | 21 | 0.0 | 5.0 | 0.00 | 0.00 | 0.00 | 61 | 1010.7 |
| 20260904220020 | 75 | 48 | 0.0 | 5.0 | 0.00 | 0.00 | 0.00 | 61 | 1010.7 |
| 20260904214520 | 76 | 115 | 0.0 | 5.0 | 0.00 | 0.00 | 0.00 | 62 | 1010.6 |
| 20260904213015 | 76 | 41 | 0.0 | 6.0 | 0.00 | 0.00 | 0.00 | 61 | 1010.5 |
| 20260904211507 | 77 | 36 | 1.0 | 7.0 | 0.00 | 0.00 | 0.00 | 60 | 1010.5 |
| 20260904210002 | 77 | 173 | 1.0 | 4.0 | 0.00 | 0.00 | 0.00 | 61 | 1010.6 |
| 20260904204600 | 77 | 227 | 0.0 | 7.0 | 0.00 | 0.00 | 0.00 | 59 | 1010.7 |
| 20260904203056 | 78 | 34 | 1.0 | 8.0 | 0.00 | 0.00 | 0.00 | 60 | 1010.7 |
| 20260904201550 | 79 | 49 | 0.0 | 5.0 | 0.00 | 0.00 | 0.00 | 57 | 1010.8 |
| 20260904200045 | 80 | 92 | 0.0 | 3.0 | 0.00 | 0.00 | 0.00 | 55 | 1010.8 |
| 20260904194542 | 80 | 203 | 1.0 | 5.0 | 0.00 | 0.00 | 0.00 | 57 | 1010.8 |
| 20260904193039 | 80 | 190 | 0.0 | 4.0 | 0.00 | 0.00 | 0.00 | 58 | 1010.8 |
| 20260904191532 | 80 | 30 | 0.0 | 7.0 | 0.00 | 0.00 | 0.00 | 56 | 1010.9 |
| 20260904190037 | 80 | 24 | 1.0 | 8.0 | 0.00 | 0.00 | 0.00 | 57 | 1011.0 |
| 20260904184523 | 80 | 223 | 0.0 | 4.0 | 0.00 | 0.00 | 0.00 | 57 | 1011.1 |
| 20260904183018 | 80 | 15 | 1.0 | 7.0 | 0.00 | 0.00 | 0.00 | 55 | 1011.2 |
| 20260904181514 | 79 | 71 | 1.0 | 5.0 | 0.00 | 0.00 | 0.00 | 56 | 1011.4 |
| 20260904180010 | 79 | 182 | 1.0 | 5.0 | 0.00 | 0.00 | 0.00 | 58 | 1011.6 |
| 20260904174506 | 78 | 5 | 2.0 | 8.0 | 0.00 | 0.00 | 0.00 | 58 | 1011.8 |
| 20260904173001 | 78 | 191 | 1.0 | 9.0 | 0.00 | 0.00 | 0.00 | 58 | 1011.7 |
| 20260904171559 | 78 | 221 | 0.0 | 8.0 | 0.00 | 0.00 | 0.00 | 60 | 1011.6 |
| 20260904170056 | 78 | 38 | 1.0 | 7.0 | 0.00 | 0.00 | 0.00 | 58 | 1011.4 |
| 20260904164547 | 78 | 184 | 0.0 | 5.0 | 0.00 | 0.00 | 0.00 | 60 | 1011.5 |